Regional Weather Roundup
Issued by NWS Midland/Odessa, TX

Home | Current Version | Previous Version | Text Only | Print | Product List | Glossary On
Versions: 1 2 3 4 5 6 7 8 9 10 11 12 13 14 15 16 17 18 19 20 21 22 23 24 25 26 27 28 29 30 31 32 33 34 35 36 37 38 39 40 41 42 43 44 45 46 47 48 49 50
000
ASUS44 KMAF 301810
RWRMAF
MIDLAND AREA WEATHER ROUNDUP
NATIONAL WEATHER SERVICE MIDLAND TX
100 PM CDT WED JUL 30 2014

...IN SOUTHWEST TEXAS AND SOUTHEAST NEW MEXICO...

CITY           SKY/WX    TMP DP  RH WIND       PRES   REMARKS
ALPINE         FAIR      92  51  24 S12G18    30.19F
ANDREWS        FAIR      96  50  21 W9G17     30.02F
ARTESIA        SUNNY     93  57  29 N13       30.04F
BIG SPRING     FAIR     100  56  23 S17G23    30.01F
CARLSBAD       SUNNY     98  56  24 N6        30.00F
DRYDEN           N/A     96  54  24 S7        30.00F
FORT STOCKTON  FAIR      97  49  19 VRB7      30.01F
GUAD PASS      SUNNY     89  54  30 SW20G28   30.21F
HOBBS          SUNNY     95  50  21 W10G20    30.05F
MARFA          FAIR      90  52  27 S6G17     30.20F
MIDLAND AIRPK  FAIR      96  51  21 S10G17    30.01F
MIDLAND INTL   FAIR      95  55  26 S10G21    30.00F
ODESSA         FAIR      94  52  24 S15G23    30.02F
PECOS          FAIR      97  51  21 NE3       29.97F
PRESIDIO       FAIR      96  53  23 S7        30.03F
SEMINOLE       FAIR      96  52  22 W10G17    30.04F
SNYDER         FAIR      88  64  44 S12G22    30.01F
WINK           FAIR      98  50  19 W5        29.97F
$$
...OTHER STATIONS IN TEXAS...

CITY           SKY/WX    TMP DP  RH WIND       PRES   REMARKS
ABILENE        FAIR      88  62  41 S13G24    30.00F
AMARILLO       PTSUNNY   78  65  63 N13       30.09F
AUSTIN         PTSUNNY   91  67  44 S9        30.02F
BROWNSVILLE    FAIR      95  71  45 S16       29.98F HX 102
CORPUS CHRISTI FAIR      94  71  47 SE9G25    29.99F HX 101
DALLAS FTW     PTSUNNY   85  69  58 SE15      30.03F
DEL RIO        FAIR      96  60  30 SE10G21   29.96F
EL PASO        MOSUNNY   93  57  29 VRB7      30.09F
HOUSTON INT    PTSUNNY   90  70  51 S9        30.03F
LUBBOCK        FAIR      89  60  37 W14G20    30.04F
SAN ANGELO     FAIR      96  55  25 S22G29    29.99F
SAN ANTONIO    PTSUNNY   90  66  45 S13       30.02F
WACO           FAIR      88  71  57 S14       30.03F
WICHITA FALLS  NOT AVBL
$$
...OTHER LOCATIONS IN NEW MEXICO...

CITY           SKY/WX    TMP DP  RH WIND       PRES   REMARKS
ALAMAGORDO     SUNNY     90  55  31 NW3       30.13S
ALBUQUERQUE    MOSUNNY   78  57  48 VRB6      30.23S
CANNON AFB     MOSUNNY   80  68  65 N14       30.13S
CLOVIS         PTSUNNY   81  64  57 N13G22    30.15
HOLLOMAN AFB   SUNNY     90  57  33 NW8       30.11F
ROSWELL        SUNNY     87  69  54 VRB6      30.06F
RUIDOSO        SUNNY     77  54  44 NW10G20   30.34S
SANTA FE       SUNNY     76  57  51 W7        30.27F
TRUTH OR CONSE SUNNY     86  55  34 SE3       30.17F
TUCUMCARI      MOSUNNY   84  59  42 NE16      30.12F
$$



USA.gov is the U.S. government's official web portal to all federal, state and local government web resources and services.